Home   Weather   Makkah   Past weeks

Flag for Saudi Arabia Past Weather in Makkah, Saudi Arabia — Yesterday and Last 2 Weeks

Now
91 °F

Passing clouds.


Feels Like: 97 °F
Forecast: 76 / 103 °F
Wind: No wind

Location: Mecca Airport

Current Time: Oct 1, 2016 at 3:03:54 AM

Latest Report: Oct 1, 2016 at 2:00 AM


Visibility: N/A

Pressure: 29.71 "Hg

Humidity: 49%

Dew Point: 70 °F

Location of MakkahLocation

Past Weather in Makkah — Graph

°F

Makkah Temperature Yesterday

Maximum temperature yesterday: 109 °F (at 1:00 PM)
Minimum temperature yesterday: 86 °F (at 6:00 AM)
Average temperature yesterday: 97 °F

High & Low Weather Summary for the Past Weeks

 TemperatureHumidityPressure
High115 °F (Sep 22, 2:00 PM)84% (Sep 29, 7:00 AM)29.83 "Hg (Sep 29, 7:00 AM)
Low84 °F (Sep 29, 6:00 AM)21% (Sep 22, 1:00 PM)29.59 "Hg (Sep 19, 3:00 PM)
Average97 °F49%29.72 "Hg
* Reported Sep 16 1:00 AM — Oct 1 1:00 AM, Makkah, Weather by CustomWeather, © 2016

Note: Actual official high and low records may vary slightly from our data, if they occured in-between our weather recording intervals... More about our weather records

Advertising

Makkah Weather History for the Previous 24 Hours

Scroll right to see more
 ConditionsComfort  
Time TempWeatherWind HumidityBarometerVisibility
1:00 AM
Sat, Oct 1
91 °FPassing clouds.No wind49%29.74 "HgN/A
12:00 AM91 °FClear.No wind52%29.74 "Hg10 mi
11:00 PM
Fri, Sep 30
93 °FClear.No wind56%29.74 "Hg10 mi
10:00 PM95 °FClear.No wind53%29.74 "Hg10 mi
9:00 PM95 °FClear.No wind56%29.74 "Hg10 mi
8:00 PM97 °FPassing clouds.2 mph50%29.71 "HgN/A
7:00 PM99 °FPassing clouds.5 mph50%29.68 "HgN/A
6:00 PM100 °FScattered clouds.7 mph40%29.68 "HgN/A
5:00 PM102 °FScattered clouds.9 mph40%29.68 "HgN/A
4:00 PM104 °FScattered clouds.2 mph40%29.65 "HgN/A
3:00 PM106 °FScattered clouds.9 mph38%29.65 "HgN/A
2:00 PM108 °FScattered clouds.9 mph32%29.68 "HgN/A
1:00 PM109 °FScattered clouds.5 mph28%29.68 "HgN/A
12:00 PM108 °FPassing clouds.6 mph32%29.71 "HgN/A
11:00 AM104 °FSunny.5 mph33%29.74 "Hg10 mi
10:00 AM99 °FSunny.5 mph39%29.74 "Hg10 mi
9:00 AM95 °FSunny.No wind47%29.74 "Hg10 mi
8:00 AM88 °FSunny.No wind62%29.74 "Hg10 mi
7:00 AM86 °FSunny.No wind66%29.71 "Hg10 mi
6:00 AM86 °FClear.No wind66%29.71 "Hg10 mi
5:00 AM88 °FClear.No wind62%29.68 "Hg10 mi
4:00 AM90 °FClear.No wind55%29.68 "Hg10 mi
3:00 AM91 °FClear.No wind52%29.68 "Hg10 mi
Weather by CustomWeather, © 2016

See weather overviewHow to use our weather pages